Location: Bun Machan
(52.1403°N, 7.3744°W)
Time: 08:08:40
(UTC+00:00)

Cosmos 2016 Rocket - Pass Details

Date: 14 July 2020
Orbit: 948 x 999 km, 83.0° (Epoch: 04 August)

Event Time Altitude Azimuth Distance (km) Brightness Sun altitude
Exits shadow 01:53:41 14° 166° (SSE) 2,378 5.5 -14.3°
Maximum altitude 01:58:48 56° 93° (E) 1,139 4.5 -14.0°
Drops below altitude 10° 02:04:53 10° 17° (NNE) 2,735 7.8 -13.7°
Sets 02:07:28 0° 13° (NNE) 3,695 8.9 -13.5°
